Location: Multiple Mirror Telescope
(31.6889°N, 110.8853°W)
Time: 10:16:02
(UTC-07:00)

Hubble Space Telescope - Pass Details

Date: 29 May 2024
Orbit: 511 x 515 km, 28.5° (Epoch: 14 June)

Event Time Altitude Azimuth Distance (km) Brightness Sun altitude
Rises 21:20:45 0° 265° (W) 2,612 4.9 -21.2°
Reaches altitude 10° 21:23:02 10° 261° (W) 1,725 3.8 -21.6°
Enters shadow 21:26:06 43° 225° (SW) 722 1.3 -22.0°
